Weather History for Millville, NJ

Change the Weather History Date:

Friday, November 16, 2012

  Actual Average Record
Temperature  
Mean Temperature 38 °F -  
Max Temperature 48 °F 54 °F 72 °F (1951)
Min Temperature 26 °F 33 °F 18 °F (1967)
Degree Days  
Heating Degree Days 28    
Moisture  
Dew Point 27 °F    
Average Humidity 68    
Maximum Humidity 92    
Minimum Humidity 38    
Precipitation  
Precipitation 0.00 in - - ()
Sea Level Pressure  
Sea Level Pressure 30.34 in    
Wind  
Wind Speed 5 mph (North)    
Max Wind Speed 10 mph    
Max Gust Speed -    
Visibility 10 miles    
Events      
Averages and records for this station are not official NWS values.
T = Trace of Precipitation, MM = Missing Value Source: NWS Daily Summary

Daily Weather History Graph

Daily Weather History Graph

Search for Another Location

Airport:

Trip Planner

Search our weather history database for the weather conditions in past years. The results will help you decide how hot, cold, wet, or windy it might be!

Date:

Astronomy

Nov. 16, 2012 Rise Set
Actual Time 6:45 AM EST 4:44 PM EST
Civil Twilight 6:16 AM EST 5:13 PM EST
Nautical Twilight 5:44 AM EST 5:45 PM EST
Astronomical Twilight 5:12 AM EST 6:17 PM EST
Moon 9:37 AM EST (11/16) 7:41 PM EST (11/16)
Length of Visible Light 10h 56m
Length of Day
9h 58m
Waxing Crescent, 11% of the Moon is Illuminated
Nov 16
Waxing Crescent
Nov 20
First Quarter
Nov 28
Full
Dec 6
Last Quarter
Dec 13
New

Hourly Weather History & Observations

Time (EST) Temp. Windchill Dew Point Humidity Pressure Visibility Wind Dir Wind Speed Gust Speed Precip Events Conditions
12:54 AM 37.9 °F 35.5 °F 30.9 °F 76% 30.29 in 10.0 mi NW 3.5 mph - N/A   Clear
1:54 AM 37.9 °F 35.5 °F 30.9 °F 76% 30.30 in 10.0 mi NNW 3.5 mph - N/A   Clear
2:54 AM 37.9 °F 34.4 °F 30.9 °F 76% 30.30 in 10.0 mi North 4.6 mph - N/A   Clear
3:54 AM 37.0 °F 32.4 °F 30.9 °F 79% 30.29 in 10.0 mi North 5.8 mph - N/A   Partly Cloudy
4:54 AM 37.0 °F 33.3 °F 30.9 °F 79% 30.30 in 10.0 mi North 4.6 mph - N/A   Partly Cloudy
5:54 AM 37.9 °F 34.4 °F 30.9 °F 76% 30.30 in 10.0 mi NNE 4.6 mph - N/A   Clear
6:54 AM 37.9 °F 33.5 °F 30.0 °F 73% 30.30 in 10.0 mi NNW 5.8 mph - N/A   Clear
7:54 AM 37.9 °F 33.5 °F 28.9 °F 70% 30.32 in 10.0 mi North 5.8 mph - N/A   Clear
8:54 AM 39.9 °F 35.1 °F 28.0 °F 63% 30.33 in 10.0 mi North 6.9 mph - N/A   Clear
9:54 AM 43.0 °F 37.7 °F 27.0 °F 53% 30.32 in 10.0 mi North 9.2 mph - N/A   Clear
10:54 AM 45.0 °F 41.2 °F 27.0 °F 49% 30.34 in 10.0 mi North 6.9 mph - N/A   Partly Cloudy
11:54 AM 45.0 °F 40.6 °F 25.0 °F 46% 30.32 in 10.0 mi NNE 8.1 mph - N/A   Overcast
12:54 PM 46.0 °F 41.0 °F 23.0 °F 40% 30.32 in 10.0 mi North 10.4 mph - N/A   Overcast
1:54 PM 48.0 °F - 25.0 °F 41% 30.31 in 10.0 mi Variable 6.9 mph - N/A   Clear
2:54 PM 48.9 °F - 24.1 °F 38% 30.31 in 10.0 mi North 8.1 mph - N/A   Clear
3:54 PM 46.9 °F - 23.0 °F 39% 30.32 in 10.0 mi North 8.1 mph - N/A   Clear
4:54 PM 42.1 °F 40.2 °F 25.0 °F 51% 30.35 in 10.0 mi North 3.5 mph - N/A   Clear
5:54 PM 34.0 °F - 27.0 °F 75% 30.37 in 10.0 mi Calm Calm - N/A   Clear
6:54 PM 30.9 °F - 26.1 °F 82% 30.38 in 10.0 mi Calm Calm - N/A   Clear
7:54 PM 28.9 °F - 25.0 °F 85% 30.39 in 10.0 mi Calm Calm - N/A   Clear
8:54 PM 28.0 °F - 24.1 °F 85% 30.41 in 10.0 mi Calm Calm - N/A   Clear
9:54 PM 27.0 °F 23.0 °F 25.0 °F 92% 30.42 in 10.0 mi West 3.5 mph - N/A   Clear
10:54 PM 27.0 °F - 25.0 °F 92% 30.42 in 10.0 mi Calm Calm - N/A   Clear
11:54 PM 26.1 °F - 24.1 °F 92% 30.43 in 10.0 mi Calm Calm - N/A   Clear